This demonstration page uses our WeatherBlox Daily Observations layout. Learn more.

Left ArrowRight Arrow

Hourly Observations for April 16, 2018

Temp ( °F °C ) Dew Point ( °F °C ) Humidity (%) Winds ( mph kmh ) Pressure ( in mb ) Visibility ( mi km ) Precip ( " mm )
12:56 am 00:56 Cloudy 26 -3.3 21 -6.1 81 81 N 8 13 30.26 1025 10 16 0.00 0.00
1:56 am 01:56 Cloudy 26 -3.3 21 -6.1 81 81 N 10 17 30.27 1025 10 16 0.00 0.00
2:05 am 02:05 Cloudy 27 -3 21 -6 80 80 N 9 15 30.33 1027 10 16 0.00 0.00
2:56 am 02:56 Cloudy 26 -3.3 21 -6.1 81 81 N 6 9 30.26 1025 10 16 0.00 0.00
3:51 am 03:51 Cloudy 25 -4 19 -7 80 80 NNE 12 19 30.33 1027 10 16 0.00 0.00
3:56 am 03:56 Cloudy 24 -4.4 20 -6.7 84 84 NNE 9 15 30.25 1024 10 16 0.00 0.00
4:21 am 04:21 Partly Cloudy 23 -5 19 -7 86 86 N 5 7 30.33 1027 10 16 0.00 0.00
4:56 am 04:56 Clear 22 -5.6 20 -6.7 92 92 NW 6 9 30.26 1025 10 16 0.00 0.00
5:56 am 05:56 Clear 19 -7.2 17 -8.3 92 92 NNW 5 7 30.25 1025 10 16 0.00 0.00
6:56 am 06:56 Sunny 18 -7.8 16 -8.9 92 92 NNW 5 7 30.24 1024 10 16 0.00 0.00
7:56 am 07:56 Sunny 23 -5 20 -6.7 88 88 NW 3 6 30.27 1025 10 16 0.00 0.00
8:56 am 08:56 Sunny 30 -1.1 24 -4.4 79 79 NNE 3 6 30.26 1025 10 16 0.00 0.00
9:56 am 09:56 Sunny 33 0.6 22 -5.6 64 64 NE 5 7 30.24 1024 10 16 0.00 0.00
10:56 am 10:56 Sunny 33 0.6 23 -5 66 66 ENE 7 11 30.23 1024 10 16 0.00 0.00
11:56 am 11:56 Sunny 36 2.2 25 -3.9 64 64 E 7 11 30.21 1023 10 16 0.00 0.00
12:56 pm 12:56 Sunny 40 4.4 28 -2.2 63 63 E 10 17 30.16 1021 10 16 0.00 0.00
1:56 pm 13:56 Sunny 43 6.1 29 -1.7 58 58 ESE 10 17 30.12 1020 10 16 0.00 0.00
2:56 pm 14:56 Sunny 46 7.8 31 -0.6 56 56 E 8 13 30.10 1019 10 16 0.00 0.00
3:56 pm 15:56 Sunny 48 8.9 31 -0.6 52 52 ESE 9 15 30.07 1018 10 16 0.00 0.00
4:56 pm 16:56 Sunny 50 10 29 -1.7 44 44 SE 13 20 30.05 1018 10 16 0.00 0.00
5:56 pm 17:56 Sunny 51 10.6 29 -1.7 43 43 SE 10 17 30.04 1017 10 16 0.00 0.00
6:56 pm 18:56 Sunny 52 11.1 28 -2.2 40 40 SE 13 20 30.03 1017 10 16 0.00 0.00
7:56 pm 19:56 Sunny 46 7.8 31 -0.6 56 56 ESE 9 15 30.01 1016 10 16 0.00 0.00
8:56 pm 20:56 Clear 44 6.7 31 -0.6 60 60 ESE 12 19 30.00 1016 10 16 0.00 0.00
9:56 pm 21:56 Clear 39 3.9 31 -0.6 73 73 E 12 19 30.01 1016 10 16 0.00 0.00
10:56 pm 22:56 Clear 39 3.9 32 0 76 76 E 14 22 30.00 1016 10 16 0.00 0.00
11:56 pm 23:56 Clear 38 3.3 32 0 79 79 E 14 22 29.98 1015 10 16 0.00 0.00

Powered by AerisWeather